TimePDT,TemperatureF,Dew PointF,Humidity,Sea Level PressureIn,VisibilityMPH,Wind Direction,Wind SpeedMPH,Gust SpeedMPH,PrecipitationIn,Events,Conditions,WindDirDegrees,DateUTC
12:54 AM,48.0,44.1,86,29.99,10.0,South,8.1,-,N/A,,Clear,190,2013-06-11 07:54:00
1:54 AM,46.9,43.0,86,29.98,10.0,South,6.9,-,N/A,,Clear,180,2013-06-11 08:54:00
2:54 AM,46.0,43.0,89,29.99,10.0,South,8.1,-,N/A,,Clear,190,2013-06-11 09:54:00
3:54 AM,46.0,44.1,93,29.99,10.0,SSW,8.1,-,N/A,,Clear,200,2013-06-11 10:54:00
4:54 AM,46.0,43.0,89,29.99,10.0,South,9.2,-,N/A,,Clear,190,2013-06-11 11:54:00
5:54 AM,48.0,46.0,93,30.00,10.0,South,6.9,-,N/A,,Overcast,190,2013-06-11 12:54:00
6:54 AM,48.9,46.0,90,30.01,10.0,SSW,10.4,-,0.00,,Scattered Clouds,200,2013-06-11 13:54:00
7:54 AM,53.1,48.0,83,30.02,10.0,SSW,10.4,-,N/A,,Overcast,210,2013-06-11 14:54:00
8:54 AM,55.0,46.9,74,30.03,10.0,SSW,12.7,-,N/A,,Scattered Clouds,210,2013-06-11 15:54:00
9:54 AM,57.0,43.0,59,30.04,10.0,SW,12.7,-,N/A,,Mostly Cloudy,220,2013-06-11 16:54:00
10:54 AM,57.0,46.0,67,30.04,10.0,SSW,11.5,-,N/A,,Mostly Cloudy,210,2013-06-11 17:54:00
11:54 AM,59.0,45.0,60,30.06,10.0,SSW,10.4,-,N/A,,Mostly Cloudy,210,2013-06-11 18:54:00
12:54 PM,59.0,46.9,64,30.06,10.0,WSW,16.1,19.6,0.00,,Mostly Cloudy,240,2013-06-11 19:54:00
1:54 PM,59.0,48.9,69,30.07,10.0,SSW,11.5,18.4,0.01,Rain,Light Rain,210,2013-06-11 20:54:00
2:54 PM,57.9,46.0,65,30.08,10.0,West,9.2,-,0.00,Rain,Light Rain,270,2013-06-11 21:54:00
3:54 PM,61.0,45.0,56,30.09,10.0,WNW,12.7,-,0.00,,Mostly Cloudy,290,2013-06-11 22:54:00
4:54 PM,60.1,44.1,55,30.09,10.0,West,11.5,23.0,N/A,,Mostly Cloudy,260,2013-06-11 23:54:00
5:54 PM,62.1,43.0,50,30.09,10.0,West,13.8,19.6,N/A,,Mostly Cloudy,270,2013-06-12 00:54:00
6:54 PM,59.0,43.0,55,30.10,10.0,West,9.2,-,N/A,,Mostly Cloudy,270,2013-06-12 01:54:00
7:54 PM,57.9,44.1,60,30.11,10.0,West,12.7,-,N/A,,Scattered Clouds,270,2013-06-12 02:54:00
8:54 PM,55.0,45.0,69,30.12,10.0,SW,6.9,-,N/A,,Overcast,220,2013-06-12 03:54:00
9:54 PM,51.1,46.0,83,30.14,10.0,South,5.8,-,N/A,,Scattered Clouds,190,2013-06-12 04:54:00
10:54 PM,51.1,46.0,83,30.14,10.0,SSE,4.6,-,N/A,,Mostly Cloudy,160,2013-06-12 05:54:00
11:54 PM,51.1,46.0,83,30.14,10.0,SSW,3.5,-,N/A,,Overcast,200,2013-06-12 06:54:00